[[{"header":{"parameterUnit":"m.s-1","parameterCategory":1,"la1":30.2991,"la2":30.254,"lo1":-89.0895,"lo2":-89.0444,"dy":0.0017,"dx":0.0017,"nx":28,"ny":28,"refTime":"2025-04-23T21:00:00:Z","depth":0,"parameterNumber":2,"parameterNumberName":"U-component_of_WINDS"},"data":[0,0,0,0,0,0,0,0,0,0,0,0,0,0,0,0,0,0,0,0,0,0,0,0,0,0,0,0,0,0,0,0,0,0,0,0,0,0,0,0,0,0,0,0,0,0,0,0,0,0,0,0,0,0,0,0,0,0,-0.3358,-0.3358,0,-0.3401,-0.3402,-0.3402,-0.3421,-0.3421,-0.3421,-0.3421,-0.3468,-0.347,-0.3471,0,0,0,0,0,0,0,0,0,0,0,0,0,-0.3294,-0.3296,-0.3358,-0.3358,-0.3359,-0.3401,-0.3402,-0.3402,-0.3421,-0.3421,-0.3421,-0.3421,-0.3468,-0.3469,-0.3471,0,0,0,0,0,0,0,0,0,0,0,0,0,-0.3328,-0.3296,-0.3358,-0.3373,-0.3375,-0.3401,-0.3402,-0.3403,-0.3421,-0.3421,-0.3421,-0.3421,-0.3467,-0.3469,-0.3471,-0.3486,0,0,-0.3477,-0.3478,0,0,0,0,0,0,0,0,-0.3326,-0.3331,-0.3371,-0.3372,-0.3374,-0.3406,-0.3397,-0.343,-0.3421,-0.3404,-0.3421,-0.3421,-0.3448,-0.3451,-0.346,-0.3488,-0.349,-0.3478,-0.3479,-0.348,-0.348,0,0,0,0,0,0,0,-0.3324,-0.3329,-0.3375,-0.3371,-0.3373,-0.3379,-0.3384,-0.3403,-0.3426,-0.3405,-0.3407,-0.3412,-0.3449,-0.3458,-0.3461,-0.3491,-0.3477,-0.3479,-0.348,-0.3481,-0.3534,-0.3534,0,0,0,0,0,0,-0.3319,-0.3327,-0.3374,-0.3376,-0.335,-0.338,-0.3386,-0.3396,-0.3426,-0.343,-0.3412,-0.3412,-0.3455,-0.3459,-0.3463,-0.3482,-0.348,-0.3481,-0.3483,-0.3533,-0.3534,-0.3534,0,0,0,0,0,0,-0.3317,-0.3323,-0.3372,-0.3352,-0.3359,-0.3382,-0.3393,-0.3397,-0.3406,-0.343,-0.3435,-0.3416,-0.3455,-0.346,-0.348,-0.3484,-0.3482,-0.3484,-0.3533,-0.3533,-0.3534,-0.352,0,0,0,0,0,0,-0.3315,-0.3322,-0.3327,-0.3352,-0.336,-0.3387,-0.3393,-0.3398,-0.3409,-0.341,-0.3436,-0.344,-0.3455,-0.3477,-0.3482,-0.3487,-0.3486,-0.3533,-0.3533,-0.3534,-0.3521,-0.352,-0.352,0,0,0,0,0,-0.3313,-0.3322,-0.3327,-0.3333,-0.3366,-0.3387,-0.3392,-0.3408,-0.3409,-0.3415,-0.3431,-0.344,-0.3483,-0.3479,-0.3484,-0.349,-0.3533,-0.3533,-0.3534,-0.3521,-0.352,-0.352,0,0,0,0,0,0,-0.3298,-0.3325,-0.3331,-0.3348,-0.3365,-0.339,-0.3398,-0.3406,-0.3424,-0.3425,-0.3444,-0.345,-0.3468,-0.3481,-0.3476,-0.3506,-0.3509,-0.351,-0.3497,-0.3497,-0.3496,-0.3493,-0.3487,0,0,0,0,0,-0.3296,-0.331,-0.3334,-0.3347,-0.3355,-0.3375,-0.3385,-0.3395,-0.3414,-0.3421,-0.3439,-0.3457,-0.3475,-0.3487,-0.3504,-0.3523,-0.3529,-0.3529,-0.3529,-0.3529,-0.353,-0.3542,-0.3542,-0.3535,-0.3535,-0.3535,0,0,-0.3293,-0.331,-0.3318,-0.3344,-0.3358,-0.3373,-0.3381,-0.3396,-0.3408,-0.3424,-0.3444,-0.3457,-0.3479,-0.3499,-0.3508,-0.351,-0.3533,-0.3529,-0.3529,-0.353,-0.3542,-0.3543,-0.3543,-0.3536,-0.3536,-0.3536,0,0,-0.3296,-0.331,-0.3322,-0.3336,-0.3357,-0.3371,-0.3374,-0.3398,-0.3407,-0.3427,-0.344,-0.3454,-0.3484,-0.35,-0.3512,-0.3521,-0.353,-0.3526,-0.3524,-0.3535,-0.3536,-0.3536,-0.354,-0.3541,-0.3527,-0.3527,-0.3527,0,-0.329,-0.3312,-0.3328,-0.3342,-0.3354,-0.3368,-0.3382,-0.3395,-0.3421,-0.343,-0.3431,-0.347,-0.3486,-0.3509,-0.3511,-0.352,-0.3525,-0.3523,-0.3534,-0.3535,-0.3536,-0.354,-0.3541,-0.3526,-0.3527,-0.3527,-0.3527,0,-0.3304,-0.3319,-0.3327,-0.3351,-0.3364,-0.3378,-0.3396,-0.3407,-0.3417,-0.3431,-0.3451,-0.3471,-0.3493,-0.3499,-0.3509,-0.3525,-0.3525,-0.353,-0.3533,-0.3536,-0.354,-0.3541,-0.3526,-0.3526,-0.3526,-0.3526,0,0,-0.3298,-0.3331,-0.3333,-0.3345,-0.3369,-0.3382,-0.3397,-0.3418,-0.3428,-0.3446,-0.346,-0.3485,-0.349,-0.3503,-0.3515,-0.3525,-0.3531,-0.3529,-0.353,-0.3529,-0.355,-0.3547,-0.3548,-0.3537,-0.3538,-0.3538,-0.3549,0,-0.3304,-0.3331,-0.3346,-0.3367,-0.3382,-0.3396,-0.341,-0.3427,-0.344,-0.3456,-0.3471,-0.3488,-0.3493,-0.3502,-0.3512,-0.3528,-0.3536,-0.3528,-0.3552,-0.3552,-0.3546,-0.355,-0.3546,-0.3555,-0.355,-0.3551,-0.3551,0,-0.3315,-0.3332,-0.3354,-0.3378,-0.3385,-0.3396,-0.3417,-0.3431,-0.3452,-0.3461,-0.3476,-0.3488,-0.3505,-0.3507,-0.3532,-0.3526,-0.3537,-0.3547,-0.3548,-0.3551,-0.3552,-0.3554,-0.3558,-0.356,-0.3553,-0.3553,-0.3553,0,-0.3309,-0.3337,-0.3355,-0.3364,-0.3392,-0.34,-0.3412,-0.3432,-0.3444,-0.3463,-0.3471,-0.3491,-0.3503,-0.3519,-0.3537,-0.3536,-0.3561,-0.3563,-0.357,-0.3569,-0.3574,-0.3574,-0.3581,-0.3581,-0.358,-0.358,-0.358,0,-0.3315,-0.3328,-0.3352,-0.3363,-0.3378,-0.3396,-0.3411,-0.3425,-0.3443,-0.3457,-0.3471,-0.3485,-0.3507,-0.3523,-0.3537,-0.3557,-0.3562,-0.357,-0.3574,-0.3569,-0.3568,-0.3577,-0.3577,-0.3581,-0.3581,-0.3581,-0.3581,0,-0.331,-0.3327,-0.3347,-0.3372,-0.3378,-0.3389,-0.3411,-0.3422,-0.3436,-0.3454,-0.346,-0.3482,-0.3502,-0.3521,-0.3548,-0.3558,-0.3578,-0.3582,-0.357,-0.3572,-0.3578,-0.3577,-0.3591,-0.3594,-0.3591,-0.3591,-0.3591,0,-0.3313,-0.3323,-0.3349,-0.3359,-0.3371,-0.3387,-0.3399,-0.3417,-0.343,-0.3454,-0.3463,-0.3484,-0.3502,-0.3534,-0.3553,-0.3574,-0.358,-0.3583,-0.3583,-0.3578,-0.3581,-0.358,-0.3581,-0.3583,-0.3583,-0.3583,-0.3583,0,-0.3316,-0.3324,-0.334,-0.336,-0.3374,-0.339,-0.3407,-0.3415,-0.3436,-0.345,-0.347,-0.3484,-0.3511,-0.3533,-0.3556,-0.357,-0.358,-0.3583,-0.3585,-0.3581,-0.3574,-0.3578,-0.357,-0.3582,-0.3582,-0.3582,-0.3582,-0.3582,-0.3316,-0.3326,-0.3346,-0.3364,-0.3379,-0.3394,-0.3406,-0.3422,-0.3439,-0.3462,-0.3472,-0.3493,-0.3514,-0.3547,-0.356,-0.3578,-0.358,-0.3584,-0.3585,-0.3586,-0.3585,-0.3571,-0.3582,-0.3582,-0.3582,-0.3582,-0.3582,0,-0.332,-0.3334,-0.335,-0.3373,-0.3388,-0.3395,-0.3415,-0.3427,-0.3445,-0.3463,-0.348,-0.3504,-0.3525,-0.3546,-0.3568,-0.3578,-0.3584,-0.3584,-0.3583,-0.3587,-0.3581,-0.3577,-0.3579,-0.3579,-0.3579,-0.3579,-0.3579,-0.3579,-0.3324,-0.3342,-0.3352,-0.3378,-0.3392,-0.3412,-0.3422,-0.3437,-0.3452,-0.3478,-0.3495,-0.3508,-0.3529,-0.3552,-0.3572,-0.3578,-0.3586,-0.3584,-0.3592,-0.3587,-0.3587,-0.3587,-0.3583,-0.3586,-0.3586,-0.3595,-0.3596,-0.3596]},{"header":{"parameterUnit":"m.s-1","parameterCategory":1,"la1":30.2991,"la2":30.254,"lo1":-89.0895,"lo2":-89.0444,"dy":0.0017,"dx":0.0017,"nx":28,"ny":28,"refTime":"2025-04-23T21:00:00:Z","depth":0,"parameterNumber":3,"parameterNumberName":"V-component_of_WINDS"},"data":[0,0,0,0,0,0,0,0,0,0,0,0,0,0,0,0,0,0,0,0,0,0,0,0,0,0,0,0,0,0,0,0,0,0,0,0,0,0,0,0,0,0,0,0,0,0,0,0,0,0,0,0,0,0,0,0,0,0,1.0202,1.0201,0,1.0166,1.0165,1.0165,1.0129,1.0128,1.0128,1.0127,1.0089,1.0088,1.0088,0,0,0,0,0,0,0,0,0,0,0,0,0,1.0237,1.0237,1.0202,1.0201,1.0201,1.0166,1.0165,1.0165,1.0129,1.0128,1.0128,1.0127,1.0089,1.0089,1.0088,0,0,0,0,0,0,0,0,0,0,0,0,0,1.0214,1.0237,1.0202,1.0179,1.0176,1.0166,1.0165,1.0165,1.0129,1.0128,1.0127,1.0127,1.0089,1.0089,1.0088,1.0097,0,0,1.0085,1.0085,0,0,0,0,0,0,0,0,1.0215,1.0212,1.0182,1.018,1.0177,1.0151,1.0164,1.0142,1.0129,1.0147,1.0127,1.0126,1.011,1.0108,1.0102,1.0095,1.0094,1.0085,1.0085,1.0084,1.0084,0,0,0,0,0,0,0,1.0217,1.0214,1.0187,1.0182,1.0179,1.0169,1.0165,1.016,1.0133,1.0145,1.0142,1.0139,1.0109,1.0103,1.0101,1.0093,1.0085,1.0084,1.0084,1.0084,1.0092,1.0092,0,0,0,0,0,0,1.0222,1.0215,1.0189,1.0186,1.0195,1.0169,1.0165,1.016,1.0133,1.0128,1.0139,1.0137,1.0105,1.0102,1.01,1.0109,1.0084,1.0083,1.0083,1.0091,1.0092,1.0093,0,0,0,0,0,0,1.0223,1.022,1.019,1.02,1.0196,1.017,1.0165,1.016,1.0154,1.0129,1.0123,1.0139,1.0104,1.0101,1.0098,1.0107,1.0083,1.0082,1.009,1.0091,1.0092,1.0127,0,0,0,0,0,0,1.0224,1.0221,1.0224,1.0201,1.0195,1.019,1.0165,1.016,1.0153,1.015,1.0127,1.0122,1.0104,1.01,1.0097,1.0105,1.0082,1.0089,1.0091,1.0092,1.0125,1.0129,1.0133,0,0,0,0,0,1.0226,1.0235,1.0225,1.0222,1.0199,1.019,1.0187,1.0166,1.0154,1.0157,1.0141,1.0123,1.0106,1.01,1.0097,1.0105,1.0089,1.009,1.0092,1.0123,1.0128,1.0133,0,0,0,0,0,0,1.026,1.0232,1.022,1.0222,1.0209,1.0184,1.0188,1.0172,1.0161,1.0159,1.0132,1.0127,1.0128,1.0116,1.0109,1.0112,1.0095,1.0096,1.012,1.0125,1.0128,1.0131,1.0081,0,0,0,0,0,1.0269,1.0264,1.0239,1.0243,1.0237,1.0214,1.0209,1.0194,1.0179,1.0173,1.0156,1.0142,1.0133,1.0128,1.0119,1.0123,1.0117,1.0127,1.0131,1.0134,1.0136,1.0137,1.0141,1.0098,1.0098,1.0098,0,0,1.0285,1.0269,1.0267,1.025,1.0238,1.0233,1.0209,1.0206,1.0202,1.0172,1.0169,1.0156,1.0138,1.0139,1.0138,1.0129,1.0146,1.0137,1.0139,1.0139,1.0139,1.0143,1.0146,1.0099,1.0099,1.0099,0,0,1.0312,1.03,1.0302,1.0291,1.0273,1.0257,1.0258,1.0235,1.0226,1.0222,1.02,1.0194,1.018,1.0169,1.0161,1.0184,1.0167,1.0182,1.0202,1.0203,1.0207,1.0209,1.0217,1.0221,1.0183,1.0183,1.0183,0,1.0335,1.0328,1.0305,1.0303,1.0296,1.0269,1.0271,1.0261,1.0241,1.0236,1.0226,1.0208,1.0194,1.0192,1.0198,1.0192,1.0192,1.0184,1.0208,1.0211,1.0213,1.022,1.0223,1.0185,1.0185,1.0185,1.0184,0,1.0356,1.0351,1.0355,1.0337,1.033,1.033,1.0307,1.0303,1.0288,1.0273,1.0269,1.0252,1.0239,1.0237,1.0223,1.0232,1.0227,1.0213,1.0195,1.0219,1.0226,1.0228,1.0188,1.0187,1.0186,1.0186,0,0,1.0404,1.0374,1.0376,1.0367,1.0346,1.0341,1.0339,1.0327,1.0324,1.0311,1.0308,1.0297,1.0284,1.0275,1.0259,1.026,1.0279,1.0246,1.0245,1.0252,1.0289,1.0299,1.0303,1.0268,1.0269,1.0269,1.029,0,1.0428,1.0424,1.0404,1.0405,1.04,1.0375,1.0374,1.036,1.0346,1.0339,1.0324,1.0316,1.0299,1.0294,1.0294,1.0277,1.0286,1.0275,1.0265,1.0265,1.027,1.0306,1.0318,1.0339,1.0293,1.0293,1.0293,0,1.0455,1.0444,1.0446,1.0424,1.0421,1.042,1.0407,1.0401,1.0385,1.0375,1.0365,1.0347,1.0343,1.0327,1.0321,1.0314,1.0309,1.03,1.03,1.0298,1.0281,1.0305,1.0345,1.0348,1.0297,1.0297,1.0296,0,1.049,1.0476,1.0475,1.0468,1.0443,1.0443,1.0432,1.0415,1.0409,1.0397,1.0393,1.0381,1.0374,1.0365,1.0344,1.0334,1.034,1.0322,1.0331,1.0332,1.0334,1.0334,1.0373,1.0331,1.0331,1.0331,1.0331,0,1.0519,1.052,1.049,1.049,1.0491,1.0467,1.0468,1.0455,1.0441,1.0437,1.0414,1.041,1.0383,1.0376,1.036,1.0357,1.0355,1.0346,1.0341,1.0348,1.0349,1.0344,1.0342,1.0331,1.0331,1.0331,1.0331,0,1.0558,1.0538,1.0535,1.0511,1.0505,1.0507,1.0487,1.0485,1.047,1.0465,1.0462,1.0438,1.0429,1.0407,1.0392,1.0381,1.0383,1.0375,1.0388,1.0386,1.0396,1.0395,1.0433,1.0436,1.0392,1.0393,1.0393,0,1.0577,1.0578,1.0555,1.0551,1.0541,1.0535,1.0528,1.0505,1.0499,1.0481,1.0481,1.047,1.046,1.0447,1.0427,1.0416,1.0407,1.0421,1.0405,1.0412,1.0407,1.0407,1.0407,1.0425,1.0425,1.0426,1.0426,0,1.0614,1.0604,1.0596,1.0584,1.0577,1.0567,1.0555,1.0553,1.0526,1.0521,1.0511,1.0504,1.0489,1.0478,1.0463,1.0452,1.0435,1.0431,1.0433,1.0439,1.0447,1.0443,1.0398,1.0431,1.043,1.043,1.043,1.0429,1.0644,1.0643,1.0627,1.0618,1.0607,1.0596,1.0593,1.0578,1.057,1.0556,1.0542,1.0534,1.0518,1.0496,1.0486,1.0479,1.047,1.0472,1.0473,1.0474,1.0476,1.0448,1.0476,1.0476,1.0476,1.0476,1.0476,0,1.0679,1.0667,1.066,1.0644,1.0637,1.0622,1.0608,1.0603,1.0597,1.0583,1.0574,1.0563,1.0552,1.0532,1.052,1.0518,1.051,1.0516,1.0515,1.0513,1.0485,1.0485,1.0523,1.0523,1.0523,1.0523,1.0523,1.0523,1.0697,1.0695,1.0683,1.0675,1.0663,1.0655,1.0649,1.0639,1.0627,1.0616,1.0608,1.0595,1.0578,1.0565,1.0554,1.0549,1.0545,1.0553,1.0545,1.0519,1.0515,1.0511,1.0511,1.0553,1.0553,1.0573,1.0574,1.0574]}]]